EW7067 Weather Reports


Display with metric or nautical units.
time (UTC)temp
F
wind
direction
speed
MPH
gust
MPH
rain 1hr
in
rain 24hr
in
rain mn
in
humidity
%
barometer
mb
20260901044930 70 297 0.0 0.0 0.00 0.00 0.00 71 975.7
20260901044431 70 297 0.0 0.0 0.00 0.00 0.00 72 975.7
20260901043933 70 297 0.0 0.0 0.00 0.00 0.00 72 975.8
20260901043431 70 297 0.0 0.0 0.00 0.00 0.00 72 975.7
20260901042928 70 297 0.0 0.0 0.00 0.00 0.00 72 975.7
20260901041925 70 297 0.0 0.0 0.00 0.00 0.00 73 975.7
20260901041424 71 297 0.0 0.0 0.00 0.00 0.00 72 975.7
20260901040925 71 297 0.0 0.0 0.00 0.00 0.00 73 975.6
20260901035920 71 297 0.0 0.0 0.00 0.00 0.00 73 975.6
20260901035415 71 297 0.0 0.0 0.00 0.00 0.00 73 975.7
20260901034909 71 297 0.0 0.0 0.00 0.00 0.00 73 975.8
20260901034403 71 297 0.0 0.0 0.00 0.00 0.00 74 975.7
20260901033856 71 297 0.0 0.0 0.00 0.00 0.00 74 975.7
20260901033350 71 297 0.0 0.0 0.00 0.00 0.00 74 975.6
20260901032845 72 297 0.0 0.0 0.00 0.00 0.00 74 975.6
20260901032338 72 297 0.0 0.0 0.00 0.00 0.00 75 975.6
20260901031834 72 297 0.0 0.0 0.00 0.00 0.00 75 975.6
20260901031326 72 297 0.0 0.0 0.00 0.00 0.00 75 975.6
20260901030821 72 297 0.0 0.0 0.00 0.00 0.00 74 975.6
20260901030315 72 297 0.0 0.0 0.00 0.00 0.00 75 975.6
20260901025808 73 297 0.0 0.0 0.00 0.00 0.00 75 975.7
20260901025306 73 297 0.0 0.0 0.00 0.00 0.00 75 975.6
20260901024757 73 297 0.0 0.0 0.00 0.00 0.00 75 975.6
20260901024252 73 297 0.0 0.0 0.00 0.00 0.00 76 975.5
20260901023746 73 297 0.0 0.0 0.00 0.00 0.00 77 975.6
20260901023238 73 297 0.0 0.0 0.00 0.00 0.00 77 975.6
20260901022732 73 297 0.0 0.0 0.00 0.00 0.00 77 975.5
20260901022226 73 297 0.0 0.0 0.00 0.00 0.00 77 975.6
20260901021725 73 297 0.0 0.0 0.00 0.00 0.00 77 975.5
20260901021224 73 297 0.0 0.0 0.00 0.00 0.00 77 975.5
20260901020723 74 297 0.0 0.0 0.00 0.00 0.00 77 975.4
20260901020221 74 297 0.0 0.0 0.00 0.00 0.00 78 975.4
20260901015718 74 297 0.0 0.0 0.00 0.00 0.00 78 975.3
20260901015219 74 297 0.0 0.0 0.00 0.00 0.00 79 975.2
20260901014719 74 297 0.0 0.0 0.00 0.00 0.00 79 975.2
20260901014217 74 297 0.0 0.0 0.00 0.00 0.00 79 975.1
20260901013717 74 297 0.0 0.0 0.00 0.00 0.00 79 975.1
20260901013215 74 297 0.0 0.0 0.00 0.00 0.00 80 975.0
20260901012217 74 297 0.0 0.0 0.00 0.00 0.00 81 974.9
20260901011715 74 297 0.0 0.0 0.00 0.00 0.00 82 974.9
20260901011213 75 297 0.0 0.0 0.00 0.00 0.00 83 974.8
20260901010713 75 297 0.0 0.0 0.00 0.00 0.00 83 974.8
20260901010213 75 297 0.0 0.0 0.00 0.00 0.00 83 974.8
20260901005712 75 297 0.0 0.0 0.00 0.00 0.00 83 974.7
20260901005213 76 297 0.0 0.0 0.00 0.00 0.00 84 974.7
20260901004712 76 297 0.0 0.0 0.00 0.00 0.00 84 974.7
20260901004213 76 297 0.0 0.0 0.00 0.00 0.00 84 974.7
20260901003713 76 297 0.0 0.0 0.00 0.00 0.00 84 974.7
20260901003214 76 297 0.0 0.0 0.00 0.00 0.00 85 974.7
20260901002713 77 297 0.0 0.0 0.00 0.00 0.00 85 974.8
20260901001708 77 297 0.0 1.0 0.00 0.00 0.00 86 974.7
20260901001210 78 297 0.0 0.0 0.00 0.00 0.00 86 974.6
20260901000709 78 297 0.0 0.0 0.00 0.00 0.00 86 974.6
20260901000211 78 297 0.0 0.0 0.00 0.00 0.00 86 974.6
20260831235709 79 297 0.0 0.0 0.00 0.00 0.00 86 974.6
20260831235209 79 297 0.0 0.0 0.00 0.00 0.00 86 974.6
20260831234709 80 297 0.0 0.0 0.00 0.00 0.00 86 974.6
20260831234208 80 297 0.0 0.0 0.00 0.00 0.00 86 974.6
20260831233709 80 297 0.0 0.0 0.00 0.00 0.00 86 974.6
20260831233208 81 297 0.0 0.0 0.00 0.00 0.00 86 974.6
20260831232709 81 297 0.0 0.0 0.00 0.00 0.00 85 974.6
20260831232210 82 297 0.0 0.0 0.00 0.00 0.00 84 974.6
20260831231206 84 297 0.0 0.0 0.00 0.00 0.00 82 974.7
20260831230704 84 297 0.0 0.0 0.00 0.00 0.00 81 974.7
20260831225702 85 297 0.0 0.0 0.00 0.00 0.00 79 974.7
20260831225201 86 297 0.0 0.0 0.00 0.00 0.00 77 974.7
20260831224700 87 297 0.0 0.0 0.00 0.00 0.00 74 974.7
20260831224202 88 297 0.0 0.0 0.00 0.00 0.00 73 974.7
20260831223656 89 297 0.0 0.0 0.00 0.00 0.00 71 974.8
20260831223150 89 297 0.0 0.0 0.00 0.00 0.00 70 974.8
20260831222644 90 297 0.0 0.0 0.00 0.00 0.00 68 974.8
20260831222138 90 297 0.0 0.0 0.00 0.00 0.00 67 974.8
20260831221633 89 297 0.0 0.0 0.00 0.00 0.00 67 974.7
20260831221126 89 297 0.0 1.0 0.00 0.00 0.00 68 974.7
20260831220620 89 297 0.0 1.0 0.00 0.00 0.00 68 974.9
20260831215608 89 297 0.0 1.0 0.00 0.00 0.00 69 974.9
20260831215102 89 297 0.0 1.0 0.00 0.00 0.00 70 975.0
20260831214556 88 297 0.0 1.0 0.00 0.00 0.00 71 975.0
20260831214050 88 297 0.0 2.0 0.00 0.00 0.00 73 975.1
20260831213544 87 297 0.0 2.0 0.00 0.00 0.00 73 975.1
20260831213038 86 297 0.0 0.0 0.00 0.00 0.00 76 975.1
20260831212532 85 297 0.0 1.0 0.00 0.00 0.00 78 975.2
20260831212026 84 297 0.0 1.0 0.00 0.00 0.00 79 975.1
20260831211520 83 297 0.0 0.0 0.00 0.00 0.00 81 975.1
20260831211014 82 296 0.0 0.0 0.00 0.00 0.00 84 975.2
20260831210508 81 296 0.0 0.0 0.00 0.00 0.00 85 975.2
20260831210004 80 296 0.0 3.0 0.00 0.00 0.00 85 975.3
20260831205457 80 296 1.0 4.0 0.00 0.00 0.00 85 975.3
20260831204950 81 296 1.0 4.0 0.00 0.00 0.00 84 975.3
20260831204446 81 140 0.0 2.0 0.00 0.00 0.00 84 975.2
20260831203938 81 140 0.0 0.0 0.00 0.00 0.00 84 975.1
20260831203433 81 140 0.0 0.0 0.00 0.00 0.00 84 975.3
20260831202421 80 140 0.0 0.0 0.00 0.00 0.00 84 975.5
20260831201914 80 140 0.0 0.0 0.00 0.00 0.00 83 975.5
20260831201408 80 140 1.0 10.0 0.00 0.00 0.00 83 975.7
20260831200356 80 195 1.0 4.0 0.00 0.00 0.00 81 975.9
20260831195852 80 307 2.0 8.0 0.00 0.00 0.00 80 976.0
20260831195345 80 317 2.0 8.0 0.00 0.00 0.00 79 976.2
20260831194840 81 309 1.0 7.0 0.00 0.00 0.00 78 976.2
20260831194333 82 310 1.0 5.0 0.00 0.00 0.00 78 976.2
20260831193826 82 24 2.0 13.0 0.00 0.00 0.00 76 976.1
20260831192814 86 314 3.0 13.0 0.00 0.00 0.00 69 976.1
20260831192308 89 15 2.0 13.0 0.00 0.00 0.00 68 975.9
20260831191258 90 190 2.0 5.0 0.00 0.00 0.00 64 975.8
20260831190750 90 112 2.0 5.0 0.00 0.00 0.00 65 975.8
20260831190245 90 121 2.0 7.0 0.00 0.00 0.00 67 975.8
20260831185739 90 120 1.0 7.0 0.00 0.00 0.00 66 975.9
20260831184726 90 80 1.0 5.0 0.00 0.00 0.00 67 975.7
20260831184220 90 80 2.0 5.0 0.00 0.00 0.00 69 975.6
20260831183714 90 157 2.0 5.0 0.00 0.00 0.00 69 975.7
20260831183208 89 304 2.0 4.0 0.00 0.00 0.00 68 975.9
20260831182703 88 159 2.0 7.0 0.00 0.00 0.00 70 975.9
20260831182158 88 159 2.0 7.0 0.00 0.00 0.00 71 975.9
20260831180639 90 98 1.0 6.0 0.00 0.00 0.00 68 975.9
20260831180132 89 74 2.0 5.0 0.00 0.00 0.00 65 976.0
20260831175626 89 74 2.0 5.0 0.00 0.00 0.00 66 976.1
20260831174615 89 89 1.0 6.0 0.00 0.00 0.00 67 976.3
20260831174109 89 89 1.0 6.0 0.00 0.00 0.00 66 976.3
20260831173603 89 321 1.0 5.0 0.00 0.00 0.00 69 976.3
20260831173056 90 329 1.0 5.0 0.00 0.00 0.00 68 976.4
20260831172550 89 152 1.0 6.0 0.00 0.00 0.00 73 976.4
20260831172044 89 142 2.0 6.0 0.00 0.00 0.00 70 976.4
20260831171033 89 121 1.0 6.0 0.00 0.00 0.00 71 976.4
20260831170526 89 148 1.0 5.0 0.00 0.00 0.00 70 976.5
20260831170021 89 80 1.0 4.0 0.00 0.00 0.00 72 976.4
20260831165515 89 80 1.0 4.0 0.00 0.00 0.00 72 976.5
20260831165008 88 324 1.0 3.0 0.00 0.00 0.00 71 976.5
20260831164503 88 324 1.0 3.0 0.00 0.00 0.00 71 976.6
20260831163956 88 324 0.0 3.0 0.00 0.00 0.00 70 976.6
20260831163450 88 324 0.0 3.0 0.00 0.00 0.00 73 976.7
20260831162945 87 324 1.0 3.0 0.00 0.00 0.00 74 976.7
20260831161932 86 324 2.0 5.0 0.00 0.00 0.00 75 976.8
20260831161426 86 324 3.0 6.0 0.00 0.00 0.00 74 976.8
20260831160920 87 324 2.0 6.0 0.00 0.00 0.00 72 976.8
20260831155908 87 341 0.0 2.0 0.00 0.00 0.00 74 976.7
20260831154857 87 336 0.0 2.0 0.00 0.00 0.00 73 976.8
20260831154351 86 336 0.0 2.0 0.00 0.00 0.00 73 976.8
20260831153844 86 336 0.0 3.0 0.00 0.00 0.00 75 976.8
20260831153339 85 336 0.0 3.0 0.00 0.00 0.00 77 976.8
20260831152834 85 316 0.0 3.0 0.00 0.00 0.00 77 976.8
20260831152327 85 316 0.0 3.0 0.00 0.00 0.00 77 976.9
20260831151824 84 316 1.0 3.0 0.00 0.00 0.00 78 976.9
20260831151322 84 316 1.0 3.0 0.00 0.00 0.00 78 976.9
20260831150819 83 314 1.0 3.0 0.00 0.00 0.00 79 976.9
20260831150320 83 314 1.0 4.0 0.00 0.00 0.00 81 976.9
20260831145818 83 314 2.0 4.0 0.00 0.00 0.00 82 976.9
20260831145316 82 309 1.0 4.0 0.00 0.00 0.00 83 976.9
20260831144813 82 313 1.0 4.0 0.00 0.00 0.00 84 976.9
20260831144314 81 308 1.0 3.0 0.00 0.00 0.00 84 976.8
20260831143813 81 308 1.0 4.0 0.00 0.00 0.00 85 976.8
20260831143311 80 307 1.0 4.0 0.00 0.00 0.00 85 976.8
20260831142810 80 306 1.0 4.0 0.00 0.00 0.00 85 976.9
20260831142313 79 306 1.0 5.0 0.00 0.00 0.00 85 976.9
20260831141810 79 306 1.0 5.0 0.00 0.00 0.00 85 976.9
20260831141311 79 305 1.0 4.0 0.00 0.00 0.00 85 976.8
20260831140809 79 5 1.0 3.0 0.00 0.00 0.00 84 976.8
20260831140311 78 157 0.0 3.0 0.00 0.00 0.00 83 976.8
20260831135811 77 228 0.0 3.0 0.00 0.00 0.00 80 976.8
20260831135307 76 228 0.0 3.0 0.00 0.00 0.00 75 976.7
20260831134805 75 228 0.0 2.0 0.00 0.00 0.00 71 976.8
20260831134307 74 228 0.0 2.0 0.00 0.00 0.00 69 976.8
20260831133806 74 246 0.0 0.0 0.00 0.00 0.00 68 976.9
20260831133305 73 175 0.0 0.0 0.00 0.00 0.00 68 976.9
20260831132806 73 171 0.0 0.0 0.00 0.00 0.00 67 976.9
20260831132307 72 171 0.0 0.0 0.00 0.00 0.00 68 976.9
20260831131806 71 171 0.0 0.0 0.00 0.00 0.00 68 977.0
20260831131306 71 169 0.0 0.0 0.00 0.00 0.00 68 976.9
20260831130805 70 169 0.0 0.0 0.00 0.00 0.00 68 976.8
20260831130305 70 169 0.0 0.0 0.00 0.00 0.00 68 976.9
20260831125806 69 169 0.0 0.0 0.00 0.00 0.00 68 977.0
20260831125306 69 169 0.0 0.0 0.00 0.00 0.00 68 977.0
20260831124805 68 169 0.0 0.0 0.00 0.00 0.00 68 977.0
20260831124306 68 169 0.0 0.0 0.00 0.00 0.00 68 977.0
20260831123805 67 169 0.0 0.0 0.00 0.00 0.00 69 977.0
20260831123306 67 169 0.0 0.0 0.00 0.00 0.00 69 977.0
20260831122805 67 169 0.0 0.0 0.00 0.00 0.00 69 977.0
20260831122306 67 169 0.0 0.0 0.00 0.00 0.00 69 976.9
20260831121805 66 168 0.0 0.0 0.00 0.00 0.00 69 976.8
20260831121306 66 168 0.0 0.0 0.00 0.00 0.00 69 976.8
20260831120805 65 168 0.0 0.0 0.00 0.00 0.00 69 976.7
20260831115306 64 168 0.0 0.0 0.00 0.00 0.00 70 976.9
20260831114803 64 168 0.0 0.0 0.00 0.00 0.00 70 976.9
20260831114302 64 168 0.0 0.0 0.00 0.00 0.00 70 976.8
20260831113757 64 168 0.0 0.0 0.00 0.00 0.00 70 976.8
20260831113251 64 168 0.0 0.0 0.00 0.00 0.00 70 976.8
20260831112744 63 168 0.0 0.0 0.00 0.00 0.00 70 976.8
20260831112239 63 168 0.0 0.0 0.00 0.00 0.00 70 976.7
20260831111227 63 168 0.0 0.0 0.00 0.00 0.00 70 976.6
20260831110721 63 168 0.0 0.0 0.00 0.00 0.00 70 976.6
20260831110215 64 168 0.0 0.0 0.00 0.00 0.00 70 976.5
20260831105203 64 168 0.0 0.0 0.00 0.00 0.00 70 976.4
20260831104657 64 168 0.0 0.0 0.00 0.00 0.00 70 976.4
20260831104150 64 168 0.0 0.0 0.00 0.00 0.00 70 976.5
20260831103645 64 168 0.0 0.0 0.00 0.00 0.00 70 976.5
20260831103138 64 168 0.0 0.0 0.00 0.00 0.00 70 976.4
20260831102632 64 168 0.0 0.0 0.00 0.00 0.00 70 976.3
20260831102127 64 168 0.0 0.0 0.00 0.00 0.00 70 976.3
20260831101620 64 168 0.0 0.0 0.00 0.00 0.00 70 976.4
20260831101114 64 168 0.0 0.0 0.00 0.00 0.00 70 976.4
20260831100608 64 168 0.0 0.0 0.00 0.00 0.00 70 976.2
20260831100103 64 168 0.0 0.0 0.00 0.00 0.00 70 976.2
20260831095556 64 168 0.0 0.0 0.00 0.00 0.00 70 976.1
20260831094545 64 168 0.0 0.0 0.00 0.00 0.00 70 976.1
20260831094039 64 168 0.0 0.0 0.00 0.00 0.00 70 976.1
20260831093026 64 168 0.0 0.0 0.00 0.00 0.00 70 976.1
20260831092520 64 168 0.0 0.0 0.00 0.00 0.00 70 976.1
20260831091508 64 168 0.0 0.0 0.00 0.00 0.00 70 976.0
20260831091002 64 168 0.0 0.0 0.00 0.00 0.00 70 976.0
20260831090457 64 168 0.0 0.0 0.00 0.00 0.00 71 976.1
20260831085950 64 168 0.0 0.0 0.00 0.00 0.00 71 976.1
20260831085445 64 168 0.0 0.0 0.00 0.00 0.00 71 976.1
20260831084938 64 168 0.0 0.0 0.00 0.00 0.00 71 976.2
20260831084432 64 168 0.0 0.0 0.00 0.00 0.00 71 976.1
20260831083927 65 168 0.0 0.0 0.00 0.00 0.00 71 975.9
20260831083420 65 168 0.0 0.0 0.00 0.00 0.00 71 975.9
20260831082915 65 168 0.0 0.0 0.00 0.00 0.00 71 975.9
20260831082408 65 168 0.0 0.0 0.00 0.00 0.00 71 975.9
20260831081903 65 168 0.0 0.0 0.00 0.00 0.00 71 975.9
20260831081356 65 168 0.0 0.0 0.00 0.00 0.00 71 975.9
20260831080851 65 168 0.0 0.0 0.00 0.00 0.00 70 976.0
20260831080352 65 168 0.0 0.0 0.00 0.00 0.00 70 976.0
20260831075849 65 168 0.0 0.0 0.00 0.00 0.00 71 976.0
20260831075347 65 168 0.0 0.0 0.00 0.00 0.00 71 976.0
20260831074845 65 168 0.0 0.0 0.00 0.00 0.00 71 975.9
20260831074343 65 168 0.0 0.0 0.00 0.00 0.00 71 975.9
20260831073841 65 168 0.0 0.0 0.00 0.00 0.00 71 975.8
20260831072840 65 168 0.0 0.0 0.00 0.00 0.00 71 975.9
20260831071837 65 168 0.0 0.0 0.00 0.00 0.00 71 976.0
20260831071335 65 168 0.0 0.0 0.00 0.00 0.00 71 975.9
20260831070336 66 168 0.0 0.0 0.00 0.00 0.00 71 976.0
20260831065833 66 168 0.0 0.0 0.00 0.00 0.00 71 976.1
20260831065333 66 168 0.0 0.0 0.00 0.00 0.00 71 976.1
20260831064833 66 168 0.0 0.0 0.00 0.00 0.00 71 976.2
20260831064333 66 168 0.0 0.0 0.00 0.00 0.00 71 976.3
20260831063833 66 168 0.0 0.0 0.00 0.00 0.00 71 976.3
20260831063334 67 168 0.0 0.0 0.00 0.00 0.00 71 976.4
20260831062831 67 168 0.0 0.0 0.00 0.00 0.00 71 976.4
20260831062329 67 168 0.0 0.0 0.00 0.00 0.00 71 976.3
20260831061819 67 168 0.0 0.0 0.00 0.00 0.00 71 976.4
20260831061314 67 168 0.0 0.0 0.00 0.00 0.00 71 976.5
20260831060301 67 168 0.0 0.0 0.00 0.00 0.00 72 976.5
20260831055756 66 168 0.0 0.0 0.00 0.00 0.00 72 976.6
20260831055249 66 168 0.0 0.0 0.00 0.00 0.00 72 976.5
20260831054744 67 168 0.0 0.0 0.00 0.00 0.00 72 976.6
20260831054237 67 168 0.0 0.0 0.00 0.00 0.00 72 976.6
20260831053731 67 168 0.0 0.0 0.00 0.00 0.00 72 976.6
20260831053225 67 168 0.0 0.0 0.00 0.00 0.00 72 976.7
20260831052719 67 168 0.0 0.0 0.00 0.00 0.00 72 976.7
20260831052214 67 168 0.0 0.0 0.00 0.00 0.00 73 976.7
20260831051707 67 168 0.0 0.0 0.00 0.00 0.00 73 976.8
20260831051202 67 168 0.0 0.0 0.00 0.00 0.00 73 976.7
20260831050655 67 168 0.0 0.0 0.00 0.00 0.00 73 976.7
20260831050149 67 168 0.0 0.0 0.00 0.00 0.00 73 976.6